Content
SEND FEEDBACK

Daily
Averages
Monthly
Summary
United States of America

ATHENS, WISCONSIN


Home > North America > United States > Wisconsin
Elevation: 1420 feet     Latitude: 45 09N     Longitude: 090 05W

WEATHER
 
SELECT A DAY
Number of Records: 417,471;   Date Range: 8/5/97 - 9/16/14
 
SHARE

PRINT THIS DATA

[ ← Previous Day ]
WEATHER ALMANAC - JANUARY 31, 2013
[ Next Day → ]
[ °C ]   °F
Weather ElementAverageHighLow
Temperature5.5 °F8.6 °F (12:35 am)-0.4 °F (11:35 pm)
Dewpoint-1.4 °F3.2 °F (12:35 am)-7.6 °F (10:55 pm)
Humidity73.3 %85 % (8:15 pm)62 % (12:55 pm)
Barometer29.77 in30.01 in (11:35 pm)29.54 in (12:35 am)
Wind Speed12.8 mph17.3 mph (10:55 am)
Wind Gust25.3 mph (10:55 am)
Weather ElementAverage
Visibility8.5 mi
Wind DirectionWNW (294.2 °)

Weather ElementTotal
Precipitation0.08 in
Heating Degree Days60.9 (Base 65)
Averaged from 69 records on January 31, 2013
WEATHER CONDITIONS BREAKOUT
WIND DIRECTION BREAKOUT
WEATHER BY HOUR - JANUARY 31, 2013
[ °C ]   °F
Local TimeTemperatureDewpointHumidityBarometerVisibilityWind DirectionWind SpeedGust SpeedPrecipitationEventsConditions
12:35 AM8.6 °F3.2 °F79 %29.54 in7.0 miWNW (290°)13.8 mph20.7 mph0.02 inOvercast
12:55 AM8.6 °F3.2 °F79 %29.54 in7.0 miWest (280°)15.0 mph19.6 mphOvercast
1:15 AM8.6 °F3.2 °F79 %29.54 in5.0 miWNW (290°)15.0 mph19.6 mphSnowLight Snow
1:35 AM8.6 °F3.2 °F79 %29.56 in5.0 miWNW (290°)12.7 mph17.3 mphHaze
1:55 AM8.6 °F3.2 °F79 %29.56 in10.0 miWest (280°)11.5 mphOvercast
2:15 AM8.6 °F3.2 °F79 %29.57 in7.0 miWest (280°)15.0 mph20.7 mphOvercast
2:35 AM8.6 °F1.4 °F73 %29.57 in5.0 miWNW (290°)13.8 mphHaze
2:55 AM8.6 °F1.4 °F73 %29.58 in7.0 miWNW (300°)12.7 mph18.4 mphOvercast
3:15 AM8.6 °F1.4 °F73 %29.58 in7.0 miWNW (290°)16.1 mph19.6 mphOvercast
3:35 AM8.6 °F1.4 °F73 %29.58 in7.0 miWNW (290°)11.5 mphOvercast
3:55 AM6.8 °F1.4 °F79 %29.59 in10.0 miWNW (290°)10.4 mphOvercast
4:15 AM6.8 °F1.4 °F79 %29.59 in10.0 miWNW (300°)11.5 mphOvercast
4:35 AM6.8 °F1.4 °F79 %29.60 in10.0 miWNW (300°)10.4 mphOvercast
4:55 AM6.8 °F1.4 °F79 %29.60 in10.0 miWNW (300°)11.5 mphOvercast
5:15 AM6.8 °F1.4 °F79 %29.60 in7.0 miWNW (300°)11.5 mphOvercast
5:35 AM6.8 °F1.4 °F79 %29.61 in7.0 miWNW (290°)11.5 mphSnowLight Snow
5:55 AM6.8 °F1.4 °F79 %29.61 in7.0 miWNW (300°)10.4 mphSnowLight Snow
6:15 AM6.8 °F-0.4 °F72 %29.62 in10.0 miWNW (290°)10.4 mphSnowLight Snow
6:55 AM5.0 °F-2.2 °F72 %29.63 in10.0 miWNW (300°)11.5 mphOvercast
7:15 AM3.2 °F-2.2 °F78 %29.65 in10.0 miWNW (290°)10.4 mph16.1 mphOvercast
7:35 AM3.2 °F-2.2 °F78 %29.66 in10.0 miWNW (290°)10.4 mphMostly Cloudy
7:55 AM3.2 °F-2.2 °F78 %29.66 in10.0 miWNW (290°)12.7 mph17.3 mphScattered Clouds
8:15 AM3.2 °F-2.2 °F78 %29.67 in10.0 miWNW (290°)11.5 mphClear
8:35 AM5.0 °F-2.2 °F72 %29.68 in10.0 miWNW (290°)13.8 mphClear
8:55 AM5.0 °F-0.4 °F78 %29.69 in10.0 miWest (280°)10.4 mphClear
9:15 AM6.8 °F-0.4 °F72 %29.70 in10.0 miWNW (300°)13.8 mph21.9 mphScattered Clouds
9:35 AM5.0 °F-0.4 °F78 %29.71 in7.0 miWest (280°)12.7 mph0.05 inMostly Cloudy
9:55 AM6.8 °F-0.4 °F72 %29.72 in7.0 miWNW (290°)13.8 mph18.4 mphOvercast
10:15 AM6.8 °F-0.4 °F72 %29.72 in10.0 miWNW (300°)10.4 mph19.6 mphOvercast
10:35 AM6.8 °F-0.4 °F72 %29.73 in10.0 miWNW (300°)12.7 mphOvercast
10:55 AM6.8 °F-0.4 °F72 %29.74 in4.0 miNW (310°)17.3 mph25.3 mphHaze
11:15 AM6.8 °F-2.2 °F67 %29.74 in7.0 miWNW (300°)15.0 mph21.9 mphOvercast
11:35 AM6.8 °F-0.4 °F72 %29.74 in7.0 miNW (310°)16.1 mphOvercast
11:55 AM6.8 °F-0.4 °F72 %29.75 in7.0 miWNW (300°)16.1 mphOvercast
12:15 PM6.8 °F-0.4 °F72 %29.75 in7.0 miWest (280°)17.3 mphOvercast
12:35 PM6.8 °F-2.2 °F67 %29.75 in10.0 miWNW (290°)17.3 mph20.7 mphOvercast
12:55 PM8.6 °F-2.2 °F62 %29.76 in7.0 miWNW (290°)17.3 mph23.0 mphOvercast
1:15 PM8.6 °F-2.2 °F62 %29.77 in10.0 miWNW (290°)17.3 mph20.7 mphOvercast
1:35 PM6.8 °F-2.2 °F67 %29.77 in10.0 miWNW (290°)15.0 mph20.7 mphOvercast
1:55 PM6.8 °F-2.2 °F67 %29.78 in7.0 miWNW (300°)13.8 mph21.9 mphOvercast
2:15 PM6.8 °F-2.2 °F67 %29.79 in10.0 miWNW (290°)15.0 mphOvercast
2:35 PM6.8 °F-2.2 °F67 %29.79 in10.0 miWNW (290°)16.1 mphOvercast
2:55 PM6.8 °F-2.2 °F67 %29.80 in10.0 miWest (280°)13.8 mph18.4 mphOvercast
3:15 PM6.8 °F-2.2 °F67 %29.82 in7.0 miWNW (300°)15.0 mphOvercast
3:35 PM6.8 °F-2.2 °F67 %29.83 in7.0 miWNW (290°)16.1 mph0.01 inOvercast
3:55 PM6.8 °F-2.2 °F67 %29.83 in5.0 miWNW (290°)13.8 mph21.9 mphHaze
4:15 PM6.8 °F-0.4 °F72 %29.84 in4.0 miWNW (300°)16.1 mph20.7 mphHaze
4:35 PM6.8 °F-0.4 °F72 %29.85 in7.0 miWNW (290°)12.7 mph17.3 mphOvercast
4:55 PM6.8 °F-2.2 °F67 %29.86 in10.0 miWNW (300°)15.0 mph18.4 mphScattered Clouds
5:15 PM5.0 °F-2.2 °F72 %29.87 in10.0 miWNW (290°)12.7 mph18.4 mphScattered Clouds
5:35 PM5.0 °F-2.2 °F72 %29.89 in7.0 miWNW (300°)13.8 mph20.7 mphOvercast
6:15 PM5.0 °F-2.2 °F72 %29.91 in10.0 miWNW (300°)10.4 mphMostly Cloudy
6:35 PM5.0 °F-2.2 °F72 %29.92 in10.0 miWNW (300°)10.4 mphOvercast
6:55 PM5.0 °F-2.2 °F72 %29.93 in4.0 miWNW (300°)11.5 mph20.7 mphSnowLight Snow
7:15 PM3.2 °F-2.2 °F78 %29.94 in7.0 miWNW (300°)10.4 mph20.7 mphMostly Cloudy
7:35 PM3.2 °F-2.2 °F78 %29.95 in10.0 miWNW (300°)11.5 mph19.6 mphClear
7:55 PM3.2 °F-2.2 °F78 %29.95 in10.0 miWNW (300°)9.2 mphClear
8:15 PM1.4 °F-2.2 °F85 %29.95 in10.0 miWNW (290°)9.2 mphClear
8:35 PM1.4 °F-4.0 °F78 %29.96 in10.0 miWNW (290°)9.2 mphClear
8:55 PM1.4 °F-4.0 °F78 %29.97 in10.0 miWNW (300°)11.5 mph17.3 mphClear
9:15 PM1.4 °F-5.8 °F72 %29.97 in10.0 miWNW (300°)10.4 mphClear
9:35 PM1.4 °F-5.8 °F72 %29.98 in10.0 miWNW (290°)10.4 mphClear
9:55 PM1.4 °F-5.8 °F72 %29.99 in10.0 miWNW (290°)8.1 mphClear
10:15 PM1.4 °F-5.8 °F72 %29.99 in10.0 miWNW (300°)9.2 mphClear
10:35 PM1.4 °F-5.8 °F72 %30.00 in10.0 miWNW (300°)12.7 mphClear
10:55 PM1.4 °F-7.6 °F66 %30.00 in10.0 miWNW (300°)12.7 mphMostly Cloudy
11:15 PM1.4 °F-7.6 °F66 %30.00 in10.0 miWNW (300°)12.7 mph17.3 mphOvercast
11:35 PM-0.4 °F-7.6 °F72 %30.01 in10.0 miNW (310°)9.2 mphOvercast
11:55 PM-0.4 °F-7.6 °F72 %30.01 in10.0 miWNW (300°)10.4 mphOvercast
Hourly data recorded from KMDZ, located miles away from Athens, Wisconsin







STORIES FROM OUR PARTNERS